[[{"header":{"parameterUnit":"m.s-1","parameterCategory":1,"la1":30.2992,"la2":30.254,"lo1":-89.0895,"lo2":-89.0443,"dy":0.0025,"dx":0.0025,"nx":19,"ny":19,"refTime":"2026-05-01T03:00:00:Z","depth":0,"parameterNumber":2,"parameterNumberName":"U-component_of_WINDS"},"data":[0,0,0,-3.0091,-3.0096,-3.0351,-3.0352,-3.068,-3.0683,0,0,0,0,0,0,0,0,0,0,0,-3.0017,-3.002,-3.0091,-3.0097,-3.0351,-3.0352,-3.0679,-3.0683,0,0,0,0,0,0,0,0,0,0,0,-3.0016,-3.0019,-3.0022,-3.0098,-3.0351,-3.0352,-3.0679,-3.0486,0,0,0,0,0,0,0,0,0,0,-3.0238,-3.0172,-3.0018,-3.0022,-3.0099,-3.0351,-3.0353,-3.0476,-3.0498,-3.0565,0,-3.0627,0,-3.066,-3.0705,-3.0706,0,0,0,-3.0096,-3.0154,-3.0221,-3.0022,-3.0102,-3.035,-3.0236,-3.0488,-3.0512,-3.0594,-3.0631,-3.0643,-3.0665,-3.0707,-3.0709,-3.1105,-3.1107,0,0,-3.0082,-3.0064,-3.0205,-3.0237,-3.0198,-3.0228,-3.0244,-3.0503,-3.0543,-3.0632,-3.0651,-3.0671,-3.0709,-3.0712,-3.1103,-3.1105,0,0,0,-3.0042,-3.0055,-3.0115,-3.0224,-3.0269,-3.0235,-3.0254,-3.0531,-3.0552,-3.0654,-3.0675,-3.0711,-3.0715,-3.1101,-3.1104,-3.1184,0,0,0,-3.0034,-3.0031,-3.0109,-3.0101,-3.0265,-3.0404,-3.0276,-3.0534,-3.0564,-3.0673,-3.0711,-3.0718,-3.1099,-3.1102,-3.1178,-3.1226,0,0,0,-3.0,-3.0028,-3.0065,-3.0099,-3.0208,-3.04,-3.0436,-3.0541,-3.0577,-3.0706,-3.0719,-3.1097,-3.1102,-3.1172,-3.1217,-3.1328,0,0,0,-2.996,-3.0132,-3.0066,-3.0266,-3.0206,-3.0446,-3.0434,-3.0614,-3.0735,-3.0713,-3.1099,-3.1104,-3.117,-3.1211,-3.1321,-3.1421,-3.146,0,0,-3.0168,-3.0156,-3.0275,-3.0224,-3.0472,-3.0409,-3.0669,-3.0795,-3.0822,-3.1009,-3.1019,-3.118,-3.1216,-3.1327,-3.1678,-3.1708,0,0,0,-3.0335,-3.0421,-3.049,-3.0605,-3.0705,-3.0795,-3.0883,-3.093,-3.1089,-3.0915,-3.1248,-3.127,-3.1336,-3.1385,-3.1411,-3.147,-3.1124,-3.1124,-3.1123,-3.0608,-3.0633,-3.0832,-3.0888,-3.0998,-3.1087,-3.1179,-3.1257,-3.125,-3.1328,-3.1385,-3.1595,-3.1651,-3.1671,-3.1732,-3.1436,-3.1436,-3.1437,-3.1437,-3.0919,-3.1046,-3.103,-3.1218,-3.1243,-3.1401,-3.1492,-3.1481,-3.1632,-3.1554,-3.1613,-3.153,-3.1704,-3.1759,-3.1443,-3.1442,-3.1441,-3.1441,-3.144,-3.1104,-3.117,-3.1222,-3.1389,-3.1514,-3.1563,-3.1709,-3.1725,-3.1742,-3.18,-3.1863,-3.1862,-3.1866,-3.1828,-3.1828,-3.1829,-3.183,-3.183,-3.1831,-3.1278,-3.1334,-3.1456,-3.1575,-3.165,-3.1751,-3.1838,-3.1912,-3.1999,-3.2,-3.2,-3.1987,-3.1715,-3.1649,-3.1842,-3.184,-3.1839,-3.1838,-3.1837,-3.1592,-3.1523,-3.171,-3.1785,-3.1926,-3.205,-3.2067,-3.2216,-3.2279,-3.2351,-3.2323,-3.2118,-3.2108,-3.2088,-3.2033,-3.2315,-3.2315,-3.2315,-3.2315,-3.1752,-3.1746,-3.1942,-3.2061,-3.2179,-3.2213,-3.2424,-3.2492,-3.2553,-3.2593,-3.2553,-3.2481,-3.2458,-3.2462,-3.2434,-3.2383,-3.2748,-3.2748,-3.2749,-3.1948,-3.1954,-3.2133,-3.219,-3.23,-3.2394,-3.2594,-3.2731,-3.2784,-3.2767,-3.2626,-3.2608,-3.2491,-3.2451,-3.2436,-3.2391,-3.2299,0,0]},{"header":{"parameterUnit":"m.s-1","parameterCategory":1,"la1":30.2992,"la2":30.254,"lo1":-89.0895,"lo2":-89.0443,"dy":0.0025,"dx":0.0025,"nx":19,"ny":19,"refTime":"2026-05-01T03:00:00:Z","depth":0,"parameterNumber":3,"parameterNumberName":"V-component_of_WINDS"},"data":[0,0,0,-3.105,-3.1051,-3.1083,-3.1083,-3.1118,-3.1118,0,0,0,0,0,0,0,0,0,0,0,-3.1038,-3.1039,-3.105,-3.1051,-3.1083,-3.1083,-3.1118,-3.1118,0,0,0,0,0,0,0,0,0,0,0,-3.1038,-3.1039,-3.1039,-3.1051,-3.1083,-3.1083,-3.1118,-3.1095,0,0,0,0,0,0,0,0,0,0,-3.1065,-3.1053,-3.1039,-3.1039,-3.1051,-3.1083,-3.1083,-3.1094,-3.1097,-3.1101,0,-3.1106,0,-3.1112,-3.112,-3.112,0,0,0,-3.1052,-3.1051,-3.1061,-3.1039,-3.1051,-3.1083,-3.1069,-3.1096,-3.1098,-3.1104,-3.1106,-3.1108,-3.1113,-3.112,-3.112,-3.1144,-3.1144,0,0,-3.105,-3.1043,-3.1059,-3.1063,-3.1059,-3.1068,-3.107,-3.1097,-3.1099,-3.1106,-3.1108,-3.1113,-3.112,-3.1121,-3.1144,-3.1144,0,0,0,-3.1044,-3.1042,-3.1052,-3.1061,-3.1068,-3.1069,-3.1071,-3.1097,-3.1101,-3.1109,-3.1114,-3.1121,-3.1121,-3.1144,-3.1144,-3.1139,0,0,0,-3.1043,-3.1038,-3.1051,-3.1047,-3.1067,-3.1083,-3.107,-3.1099,-3.1103,-3.1114,-3.1121,-3.1121,-3.1143,-3.1144,-3.1139,-3.1139,0,0,0,-3.1037,-3.1037,-3.1041,-3.1046,-3.106,-3.1083,-3.1089,-3.11,-3.1106,-3.112,-3.1121,-3.1143,-3.1144,-3.1139,-3.1139,-3.1143,0,0,0,-3.1028,-3.1037,-3.1041,-3.1053,-3.1059,-3.108,-3.1089,-3.1104,-3.1116,-3.1121,-3.1143,-3.1144,-3.1139,-3.1139,-3.1143,-3.1145,-3.1145,0,0,-3.1036,-3.1038,-3.1045,-3.105,-3.1069,-3.1076,-3.1093,-3.1111,-3.1118,-3.1134,-3.1135,-3.1139,-3.1139,-3.1143,-3.1148,-3.1148,0,0,0,-3.1045,-3.1051,-3.1057,-3.1068,-3.1082,-3.1093,-3.1108,-3.1114,-3.1128,-3.1125,-3.1142,-3.1142,-3.1144,-3.1146,-3.1146,-3.1148,-3.1144,-3.1144,-3.1144,-3.1046,-3.1055,-3.1068,-3.108,-3.1091,-3.1106,-3.1114,-3.1125,-3.1131,-3.1134,-3.114,-3.1142,-3.1144,-3.1144,-3.1146,-3.1141,-3.1141,-3.1141,-3.1141,-3.1059,-3.1067,-3.1074,-3.1089,-3.1098,-3.111,-3.1123,-3.1127,-3.1138,-3.1139,-3.1142,-3.1143,-3.1144,-3.1146,-3.1141,-3.1141,-3.1141,-3.1141,-3.1141,-3.1061,-3.1067,-3.1074,-3.1089,-3.11,-3.1111,-3.1122,-3.1129,-3.1136,-3.1138,-3.1144,-3.1144,-3.1145,-3.114,-3.114,-3.114,-3.114,-3.114,-3.114,-3.1061,-3.1069,-3.1078,-3.1091,-3.1098,-3.1108,-3.1122,-3.1128,-3.1138,-3.1142,-3.1142,-3.1147,-3.1142,-3.1141,-3.1141,-3.1141,-3.1141,-3.1141,-3.1141,-3.1072,-3.107,-3.1083,-3.109,-3.1106,-3.1115,-3.1123,-3.1136,-3.1142,-3.1147,-3.1151,-3.1146,-3.1148,-3.1148,-3.1147,-3.1149,-3.1149,-3.1149,-3.1149,-3.1074,-3.1076,-3.109,-3.1101,-3.1111,-3.112,-3.1132,-3.1141,-3.1151,-3.1155,-3.1155,-3.1154,-3.1154,-3.1157,-3.1157,-3.1156,-3.116,-3.116,-3.116,-3.1081,-3.1084,-3.1095,-3.1104,-3.1115,-3.1125,-3.1137,-3.1147,-3.1157,-3.116,-3.1158,-3.1158,-3.1156,-3.1155,-3.116,-3.1159,-3.1158,0,0]}]]